#timestamp,LO_Frequency,Hit,StdDev 
1514214015.0,286047001.9,N
1514214015.9,286047001.9,N
1514214035.8,286047006.3,N
1514214055.6,286047007.9,N
1514214075.4,286047011.8,Y
1514214095.3,286047010.5,P
1514214115.1,286047006.7,N
1514214116.0,286047006.7,N
1514214135.8,286047009.9,Y
1514214155.7,286047001.3,P
1514214175.5,286047005.1,N
1514214195.3,286047009.1,P
1514214215.2,286047010.8,Y
1514214235.9,286047006.8,P
1514214255.7,286047007.0,P
1514214275.6,286047008.5,P
1514214295.4,286047006.4,Y
1514214315.2,286047000.7,P
1514214335.1,286047000.8,N
1514214336.0,286047000.8,N
1514214355.8,286047005.6,N
1514214375.6,286047005.3,N
1514214395.5,286047004.9,N
1514214415.3,286047007.5,N
1514214435.1,286047007.3,N
1514214455.8,286047003.6,N
1514214475.7,286047004.1,N
1514214495.5,286047004.1,N
1514214515.3,286047002.2,N
1514214535.2,286046999.8,N
1514214555.0,286047001.7,N
1514214555.9,286047001.7,N
1514214575.7,286047004.4,N
1514214595.6,286047001.5,N
1514214615.4,286047001.4,N
1514214635.2,286047003.1,N
1514214655.1,286047005.2,N
1514214656.0,286047005.2,N
1514214675.8,286047004.4,N
1514214695.6,286047002.0,N
1514214715.5,286047004.6,N
1514214735.3,286047007.6,Y
1514214755.1,286046999.7,P
1514214775.9,286046999.6,N
1514214795.7,286046996.2,N
1514214815.5,286046991.8,Y
1514214835.4,286046991.9,P
1514214855.2,286046992.0,N
1514214875.0,286046989.3,N
1514214875.9,286046989.3,N
1514214895.8,286046988.9,N
1514214915.6,286046991.1,N
1514214935.4,286046990.2,N
1514214955.3,286046988.7,Y
1514214975.1,286046997.3,P
1514214976.0,286046997.3,N
1514214995.8,286046997.3,N
1514215015.7,286046997.9,N
1514215035.5,286046998.6,N
1514215055.3,286046993.9,N
1514215075.1,286046996.2,N
1514215095.9,286046993.8,N
1514215115.7,286046994.1,N
1514215135.5,286046994.7,N
1514215155.4,286046995.2,N
1514215175.2,286046993.4,Y
1514215195.0,286047000.6,P
1514215196.0,286047000.6,N
1514215215.8,286046999.0,N
1514215235.6,286046998.4,N
1514215255.4,286046996.6,N
1514215275.3,286046996.9,N
1514215295.1,286046999.6,N
1514215315.8,286046998.2,N
1514215335.7,286046996.2,N
1514215355.5,286046993.7,Y
1514215375.3,286046996.2,P
1514215395.2,286046996.1,P
1514215415.0,286046995.6,P
1514215415.9,286046995.6,Y
1514215435.8,286046999.7,P
1514215455.6,286047004.3,N
1514215475.4,286047004.9,N
1514215495.3,286047003.1,N
1514215515.1,286047005.2,N
1514215516.0,286047005.2,N
1514215535.8,286047006.4,N
1514215555.6,286047009.3,N
1514215575.5,286047011.1,Y
1514215595.3,286047008.1,P
1514215615.1,286047008.9,P
1514215635.9,286047006.2,N
1514215655.7,286047008.9,Y
1514215675.5,286047000.1,P
1514215695.4,286047000.6,N
1514215715.2,286046998.4,N
1514215735.0,286046998.4,N
1514215735.9,286046998.4,N
1514215755.8,286047002.2,N
1514215775.6,286047003.5,N
1514215795.4,286047007.6,N
1514215815.3,286047008.9,N
1514215835.1,286047007.4,N
1514215836.0,286047007.4,N
1514215855.8,286047003.2,N
1514215875.7,286047001.7,N
1514215895.5,286047005.9,N
1514215915.3,286047004.7,N
1514215935.2,286047006.2,N
1514215955.9,286047009.8,N
1514215975.7,286047010.2,N
1514215995.5,286047010.7,N
1514216015.4,286047010.6,N
1514216035.2,286047006.3,N
1514216055.0,286047007.5,N
1514216055.9,286047007.5,N
1514216075.8,286047005.2,N
1514216095.6,286047004.0,N
1514216115.4,286046998.2,N
1514216135.3,286046997.3,N
1514216155.1,286047002.7,N
1514216156.0,286047002.7,N
1514216175.8,286047002.0,N
1514216195.7,286047006.6,N
1514216215.5,286047007.9,N
1514216235.3,286047005.3,N
1514216255.2,286046998.4,N
1514216275.9,286046999.0,N
1514216295.7,286046998.4,N
1514216315.6,286047000.9,N
1514216335.4,286046999.7,N
1514216355.2,286046999.8,N
1514216375.0,286046999.4,N
1514216375.9,286046999.4,N
1514216395.8,286046997.7,N
1514216415.6,286046993.8,N
1514216435.4,286046995.9,N
1514216455.3,286046993.7,N
1514216475.1,286046993.5,N
1514216495.8,286046991.9,N
1514216515.7,286046992.0,N
1514216535.5,286046994.4,N
1514216555.3,286046995.8,N
1514216575.2,286046993.9,N
1514216595.9,286046993.2,N
1514216615.7,286046991.4,N
1514216635.6,286046990.9,N
1514216655.4,286046990.4,N
1514216675.2,286046991.6,N
1514216695.0,286046990.1,N
1514216695.9,286046990.1,N
1514216715.8,286046992.4,N
1514216735.6,286046989.1,N
1514216755.4,286046985.9,N
1514216775.3,286046983.9,Y
1514216795.1,286046990.5,P
1514216815.8,286046991.9,P
1514216835.7,286046993.2,P
1514216855.5,286046988.8,Y
1514216875.3,286047000.7,P
1514216895.2,286047000.5,N
1514216915.0,286047000.2,N
1514216915.9,286047000.2,N
1514216935.7,286046999.6,N
1514216955.6,286046995.9,N
1514216975.4,286046997.2,N
1514216995.2,286047001.1,N
1514217015.1,286046996.4,N
1514217016.0,286046996.4,N
1514217035.8,286046993.7,N
1514217055.6,286046995.4,N
1514217075.5,286046998.0,N
1514217095.3,286046999.5,N
1514217115.1,286046999.3,N
1514217135.9,286046997.5,N
1514217155.7,286046997.2,N
1514217175.5,286046993.3,N
1514217195.4,286046990.6,Y
1514217215.2,286046993.4,P
1514217235.0,286046993.6,P
1514217235.9,286046993.6,P
1514217255.8,286046994.8,N
1514217275.6,286046993.8,Y
1514217295.4,286047001.6,P
1514217315.3,286047001.8,N
1514217335.1,286047000.2,N
1514217336.0,286047000.2,N
1514217355.8,286047004.1,N
1514217375.6,286047006.0,N
1514217395.5,286047001.9,N
1514217415.3,286047003.9,N
1514217435.1,286047004.1,N
1514217455.9,286047008.4,N
1514217475.7,286047015.2,Y
1514217495.5,286047017.7,P
1514217515.4,286047020.3,N
1514217535.2,286047021.6,N
1514217555.0,286047024.6,Y
1514217555.9,286047024.6,P
1514217575.8,286047012.6,N
1514217595.6,286047011.0,N
